TimeCDT,TemperatureF,Dew PointF,Humidity,Sea Level PressureIn,VisibilityMPH,Wind Direction,Wind SpeedMPH,Gust SpeedMPH,PrecipitationIn,Events,Conditions,WindDirDegrees,DateUTC
12:03 AM,48.2,46.4,93,30.04,1.0,Calm,Calm,-,N/A,,Clear,0,2012-11-02 05:03:00
12:10 AM,48.2,46.4,93,30.04,0.8,Calm,Calm,-,N/A,,Clear,0,2012-11-02 05:10:00
12:18 AM,48.2,46.4,93,30.04,1.2,Calm,Calm,-,N/A,,Clear,0,2012-11-02 05:18:00
12:35 AM,46.4,46.4,100,30.04,3.0,Calm,Calm,-,N/A,,Clear,0,2012-11-02 05:35:00
12:53 AM,48.0,46.0,93,30.04,4.0,Calm,Calm,-,N/A,,Clear,0,2012-11-02 05:53:00
1:53 AM,48.0,46.0,93,30.05,5.0,Calm,Calm,-,N/A,,Clear,0,2012-11-02 06:53:00
2:13 AM,48.2,46.4,93,30.04,2.0,Calm,Calm,-,N/A,,Clear,0,2012-11-02 07:13:00
2:23 AM,48.2,46.4,93,30.04,3.0,Calm,Calm,-,N/A,,Clear,0,2012-11-02 07:23:00
2:31 AM,46.4,46.4,100,30.04,2.0,Calm,Calm,-,N/A,,Clear,0,2012-11-02 07:31:00
2:41 AM,48.2,46.4,93,30.04,3.0,Calm,Calm,-,N/A,,Clear,0,2012-11-02 07:41:00
2:44 AM,48.2,46.4,93,30.04,1.8,Calm,Calm,-,N/A,,Clear,0,2012-11-02 07:44:00
2:53 AM,48.0,46.0,93,30.04,3.0,Calm,Calm,-,N/A,,Clear,0,2012-11-02 07:53:00
3:53 AM,48.0,46.0,93,30.04,5.0,Calm,Calm,-,N/A,,Clear,0,2012-11-02 08:53:00
4:53 AM,48.0,46.0,93,30.04,7.0,Calm,Calm,-,N/A,,Clear,0,2012-11-02 09:53:00
5:53 AM,46.9,46.0,97,30.04,8.0,Calm,Calm,-,N/A,,Clear,0,2012-11-02 10:53:00
6:46 AM,48.2,46.4,93,30.04,8.0,Calm,Calm,-,N/A,,Partly Cloudy,0,2012-11-02 11:46:00
6:53 AM,48.0,46.9,96,30.05,9.0,Calm,Calm,-,N/A,,Partly Cloudy,0,2012-11-02 11:53:00
7:53 AM,52.0,50.0,93,30.07,7.0,Calm,Calm,-,N/A,,Clear,0,2012-11-02 12:53:00
8:05 AM,53.6,51.8,94,30.07,6.0,Calm,Calm,-,N/A,,Scattered Clouds,0,2012-11-02 13:05:00
8:19 AM,55.4,51.8,88,30.07,4.0,Calm,Calm,-,N/A,,Mostly Cloudy,0,2012-11-02 13:19:00
8:53 AM,60.1,57.0,90,30.08,5.0,Calm,Calm,-,N/A,,Mostly Cloudy,0,2012-11-02 13:53:00
9:04 AM,62.6,60.8,94,30.08,1.8,Calm,Calm,-,N/A,,Overcast,0,2012-11-02 14:04:00
9:09 AM,62.6,60.8,94,30.08,0.5,WSW,3.5,-,N/A,,Overcast,250,2012-11-02 14:09:00
9:19 AM,64.4,62.6,94,30.09,0.2,WSW,3.5,-,N/A,,Unknown,240,2012-11-02 14:19:00
9:36 AM,66.2,64.4,94,30.09,1.0,Calm,Calm,-,N/A,,Unknown,0,2012-11-02 14:36:00
9:45 AM,66.2,64.4,94,30.09,3.0,WSW,4.6,-,N/A,,Overcast,240,2012-11-02 14:45:00
9:53 AM,69.1,66.0,90,30.10,5.0,WSW,3.5,-,N/A,,Overcast,250,2012-11-02 14:53:00
10:09 AM,71.6,64.4,78,30.09,8.0,Variable,4.6,-,N/A,,Scattered Clouds,0,2012-11-02 15:09:00
10:53 AM,72.0,64.9,78,30.10,9.0,SW,9.2,-,N/A,,Scattered Clouds,230,2012-11-02 15:53:00
11:06 AM,69.8,64.4,83,30.09,8.0,SW,10.4,-,N/A,,Mostly Cloudy,220,2012-11-02 16:06:00
11:15 AM,69.8,64.4,83,30.09,8.0,SW,9.2,-,N/A,,Mostly Cloudy,230,2012-11-02 16:15:00
11:53 AM,72.0,64.0,76,30.09,10.0,WSW,5.8,-,N/A,,Scattered Clouds,250,2012-11-02 16:53:00
12:53 PM,75.0,64.9,71,30.06,10.0,Variable,4.6,-,N/A,,Clear,0,2012-11-02 17:53:00
1:53 PM,78.1,64.9,64,30.03,10.0,SSW,6.9,-,N/A,,Clear,200,2012-11-02 18:53:00
2:53 PM,80.1,64.0,58,30.02,10.0,West,8.1,-,N/A,,Clear,280,2012-11-02 19:53:00
3:53 PM,78.1,64.9,64,30.01,10.0,SSW,5.8,-,N/A,,Clear,210,2012-11-02 20:53:00
4:53 PM,75.0,66.0,73,30.01,10.0,SSW,3.5,-,N/A,,Clear,210,2012-11-02 21:53:00
5:53 PM,72.0,64.9,78,30.02,10.0,Calm,Calm,-,N/A,,Clear,0,2012-11-02 22:53:00
6:53 PM,69.1,64.0,84,30.03,10.0,Calm,Calm,-,N/A,,Clear,0,2012-11-02 23:53:00
7:53 PM,68.0,64.9,90,30.04,7.0,SW,3.5,-,N/A,,Clear,230,2012-11-03 00:53:00
8:53 PM,66.9,64.9,93,30.05,6.0,Calm,Calm,-,N/A,,Clear,0,2012-11-03 01:53:00
9:14 PM,64.4,64.4,100,30.05,2.0,Calm,Calm,-,N/A,,Clear,0,2012-11-03 02:14:00
9:26 PM,62.6,62.6,100,30.05,4.0,Calm,Calm,-,N/A,,Clear,0,2012-11-03 02:26:00
9:39 PM,62.6,62.6,100,30.06,1.8,Calm,Calm,-,N/A,,Clear,0,2012-11-03 02:39:00
9:53 PM,64.0,63.0,96,30.06,3.0,Calm,Calm,-,N/A,,Clear,0,2012-11-03 02:53:00
10:53 PM,66.9,64.9,93,30.06,9.0,SW,3.5,-,N/A,,Clear,230,2012-11-03 03:53:00
11:53 PM,66.0,64.0,93,30.07,9.0,Calm,Calm,-,N/A,,Clear,0,2012-11-03 04:53:00